Regional Weather Roundup
Issued by NWS Newport/Morehead, NC

Current Version | Previous Version | Graphics & Text | Print | Product List | Glossary On
Versions: 1 2 3 4 5 6 7 8 9 10 11 12 13 14 15 16 17 18 19 20 21 22 23 24 25 26 27 28 29 30 31 32 33 34 35 36 37 38 39 40 41 42 43 44 45 46 47 48 49 50
000 ASUS42 KMHX 282225 RWRMHX WEATHER ROUNDUP FOR EASTERN NORTH CAROLINA NATIONAL WEATHER SERVICE NEWPORT/MOREHEAD CITY NC 600 PM EDT TUE JUL 28 2015 NOTE: "FAIR" INDICATES FEW OR NO CLOUDS BELOW 12,000 FEET WITH NO SIGNIFICANT WEATHER AND/OR OBSTRUCTIONS TO VISIBILITY NCZ015>017-031-032-045>047-102-103-282300- NORTH COAST CITY SKY/WX TMP DP RH WIND PRES REMARKS EDENTON N/A 85 68 56 S6 29.97S ELIZABETH CITY CLOUDY 84 70 62 SE9 29.97F KITTY HAWK MOCLDY 86 69 56 SE6 29.97F MANTEO PTSUNNY 82 69 64 S8 29.98F $$ NCZ045>047-081-094-103-104-282300- CENTRAL COAST CITY SKY/WX TMP DP RH WIND PRES REMARKS FRISCO SUNNY 85 70 60 SE8 29.99S SWANQUARTER N/A 84 N/A N/A SE7 29.94S $$ NCZ095-097-098-100-101-282300- SOUTHERN COAST CITY SKY/WX TMP DP RH WIND PRES REMARKS BEAUFORT SUNNY 84 71 65 E8 29.97F CEDAR ISLAND N/A 84 N/A N/A E5G13 30.00F JACKSONVILLE SUNNY 85 70 60 SE12 29.97S PINEY ISLAND PTCLDY N/A N/A N/A E8 29.97F WILMINGTON SUNNY 84 69 60 E7 29.97S $$ NCZ011>013-027>030-043-044-078>080-089-090>093-098-282300- COASTAL PLAIN CITY SKY/WX TMP DP RH WIND PRES REMARKS AHOSKIE CLOUDY 85 71 60 S5 29.96F CLINTON SUNNY 88 71 55 CALM 29.96S ELIZABETHTOWN SUNNY 89 68 49 SE10 29.96S GOLDSBORO PTSUNNY 88 73 60 SE5 29.94S GREENVILLE PTSUNNY 86 70 58 SE6 29.98S HAVELOCK MOSUNNY 86 68 54 SE7 29.98F KENANSVILLE MOSUNNY 86 67 53 CALM 29.98R KINSTON PTSUNNY 88 70 55 SE6 29.97F NEW BERN SUNNY 87 68 52 SE10 29.98F RICHLANDS SUNNY 86 68 54 SE6 29.97S ROCKY MOUNT CLOUDY 86 69 56 CALM 29.97S WASHINGTON MOSUNNY 85 71 61 SE7 29.97F WHITEVILLE SUNNY 89 70 53 SE6 29.95S $$ AMZ130-135-150-152-154-156-158-170-250-252-270-ANZ085-086-088-633-658-670-282300- MARINE OBSERVATIONS STATION/POSITION TIME TEMP WIND PRES WAVE SWELL AIR SEA DIR/SP/G HT/PER HT/PER (UTC) (F) (DEG/KT/KT) (MB) (FT/S) (FT/S) CHESAPEAKE LIGHT 2200 80 150/ 12/ 13 1015.7 64 E VA BEACH 2150 81 82 200/ 2/ 4 1015.4 2/ 7 2/ 7 DUCK 2200 81 77 130/ 13/ 14 1014.3 2 E DUCK 2111 81 N/A 2/11 2/11 OREGON INLET 2200 82 87 130/ 6/ 10 1015.4 13E OREGON INLT 2200 81 N/A 2/11 HATTERAS CG 2200 83 83 120/ 7/ 9 1015.0 DIAMOND BUOY NOT AVBL CAPE LOOKOUT 2200 81 70/ 10/ 11 1014.8 BEAUFORT LAB 2200 83 81 100/ 9/ 10 1014.3 30 SE NEW RVR IN NOT AVBL 27 SE WRIGHTSVLE 2200 79 82 80/ 12/ 14 N/A 5 SE WRIGHTSVLE NOT AVBL 225 S CAPE HAT 2150 82 82 220/ 21/ 25 1013.5 8/ 7 41 SE CHARLESTON 2150 84 85 50/ 12/ 14 1013.2 3/ 5 2/ 6 $$

USA.gov is the U.S. government's official web portal to all federal, state and local government web resources and services.